Theta_e
322 323 322 323 323 324 324 326 327 328 328 330 330 328 329 329 328 324 318 322 324 332 327 315 316 317 317 315 315 313 305 301 301 300 302 300 303 308 312 313 315 317 314 318 327
322 322 322 322 323 323 324 324 326 326 327 328 329 328 328 327 323 320 328 330 334 333 319 313 311 313 309 312 313 307 304 304 307 306 303 301 301 305 308 311 312 315 319 322 328
321 321 322 322 322 322 323 323 324 325 325 326 327 328 328 327 316 317 332 330 331 330 319 316 313 310 306 310 311 307 302 306 306 306 303 301 300 301 306 305 310 311 315 320 325
321 321 321 321 322 322 322 323 323 323 324 325 326 325 326 321 302 318 332 332 330 328 319 311 308 306 303 304 309 304 309 309 307 305 300 299 300 299 305 308 309 310 318 321 322
319 319 319 320 320 322 322 322 322 323 322 324 325 325 321 313 310 323 330 331 327 324 318 310 306 305 300 304 307 305 307 310 311 308 308 307 302 299 299 304 309 314 318 320 322
318 318 319 318 320 321 321 322 322 322 323 322 323 323 311 303 321 324 327 326 324 321 317 313 309 309 305 303 302 305 308 307 309 309 309 303 304 301 304 309 312 314 315 319 321
318 318 318 318 319 319 320 321 321 321 321 324 322 313 307 306 318 320 325 323 323 321 315 317 314 309 307 302 305 305 301 303 305 307 308 308 302 300 309 307 308 312 314 316 320
316 317 317 318 318 319 320 320 319 319 320 321 320 308 301 311 312 311 321 319 322 322 318 318 317 312 307 307 304 301 300 293 299 305 307 306 299 308 309 306 307 308 312 315 317
314 314 317 317 317 318 318 319 317 318 319 319 306 306 298 312 305 309 318 314 318 318 316 319 316 309 306 300 296 296 288 292 295 304 304 302 299 307 308 304 306 306 309 312 315
313 314 315 316 316 317 317 317 316 316 312 311 308 296 298 298 304 309 316 316 313 313 311 311 308 303 301 298 289 289 292 292 292 299 300 297 300 306 305 303 305 306 305 310 313
312 314 316 316 316 317 315 309 299 296 302 296 297 294 297 303 308 306 314 312 310 307 299 305 298 296 299 300 295 293 292 291 295 300 298 297 299 303 306 302 302 302 304 306 310
312 313 314 315 316 316 309 298 298 297 293 298 299 299 301 304 298 303 312 303 303 297 302 300 293 299 302 302 299 294 291 290 295 298 296 295 295 300 301 302 303 305 305 303 307
311 312 312 315 315 312 304 298 303 301 292 295 299 298 298 301 296 298 306 302 298 297 297 295 297 302 299 299 297 297 294 292 291 293 294 292 291 296 298 301 303 303 305 306 305
311 311 312 315 309 307 301 302 304 300 282 287 293 295 299 299 292 302 307 300 296 293 295 296 299 299 298 297 298 293 299 297 294 293 286 292 285 291 295 296 299 302 303 304 306
310 310 312 314 306 301 302 304 303 298 271 286 290 301 299 294 293 294 305 300 292 293 295 291 295 295 294 296 299 295 299 296 296 292 291 290 288 290 292 293 297 301 302 305 306
309 310 306 310 307 305 305 305 300 280 271 283 291 290 290 292 292 297 297 300 298 293 295 293 298 298 297 298 299 300 296 295 294 293 285 290 289 288 291 294 297 300 302 303 304
309 308 302 309 301 306 305 298 280 274 278 283 285 290 288 287 290 291 291 291 287 283 284 291 294 298 301 296 299 298 294 285 283 283 283 287 286 291 292 295 297 298 301 303 303
309 309 305 308 306 306 301 286 273 270 274 285 288 289 284 287 287 289 289 287 290 287 283 282 282 293 299 296 294 295 294 286 279 278 282 284 282 287 296 299 300 299 301 300 300
307 301 305 304 307 305 291 280 274 274 281 286 287 284 283 287 285 286 285 285 289 291 284 282 282 292 297 298 297 293 290 293 282 271 278 282 287 291 294 297 297 296 297 300 302
300 297 300 306 306 299 287 278 274 283 287 289 282 284 280 284 283 284 284 287 287 292 294 288 285 292 292 297 298 296 298 287 287 279 274 280 282 286 288 295 299 298 297 300 301
294 290 300 306 302 291 282 273 281 287 288 284 282 285 285 284 284 282 281 285 289 289 292 293 289 287 293 291 291 292 292 292 290 284 278 278 283 289 293 295 297 299 298 299 300
287 284 302 303 286 286 280 281 288 285 287 286 285 284 284 287 285 284 280 285 289 291 287 292 288 284 289 294 296 296 293 293 287 283 282 280 284 290 293 294 294 294 295 295 296
287 290 300 298 281 278 280 283 285 285 284 284 283 285 286 284 281 286 288 291 292 289 288 290 287 280 283 289 292 292 294 294 293 286 284 283 286 293 290 290 289 290 292 293 293
290 283 286 286 280 281 278 278 283 286 285 286 284 286 284 284 285 283 285 290 293 292 296 295 285 284 279 282 290 289 292 293 292 287 287 286 289 293 289 289 291 290 291 290 291
289 284 284 279 279 278 279 279 281 280 285 285 284 283 283 279 282 282 285 287 289 294 294 292 283 283 286 287 288 290 291 292 290 291 287 289 289 293 295 295 296 294 291 291 291
285 285 282 276 284 281 279 273 276 279 282 282 281 283 283 280 281 281 284 286 283 288 288 292 280 284 282 287 288 285 288 291 293 292 292 292 291 298 298 295 294 298 294 291 291
286 286 286 283 283 280 274 275 280 283 284 285 284 283 282 283 285 285 288 287 286 284 286 285 281 282 280 284 286 282 287 288 288 293 293 289 294 298 294 294 296 296 296 296 294
Wind_Speed
22 21 21 19 18 16 16 14 13 12 12 12 14 11 10 7 7 3 8 5 3 2 2 2 4 4 4 3 3 3 4 7 5 6 4 2 1 1 1 4 3 4 3 1 11
23 23 22 21 18 17 15 16 13 10 11 13 14 12 8 8 1 8 5 3 5 2 1 1 3 3 3 2 1 4 4 16 9 8 3 4 1 3 2 2 3 3 2 2 14
24 23 22 20 20 19 17 17 14 11 8 6 11 13 12 6 5 6 13 5 6 10 4 0 4 3 3 1 2 4 6 5 7 8 7 4 2 1 4 4 7 7 5 10 12
26 25 23 22 21 20 19 16 16 14 12 8 6 10 14 5 10 4 19 19 11 5 3 1 3 4 5 5 2 3 5 4 3 7 7 5 2 2 6 5 3 5 6 13 15
27 26 24 23 22 21 19 18 18 17 15 14 10 9 8 7 6 2 9 15 11 6 5 2 1 3 5 6 4 2 2 4 3 6 5 0 6 5 7 8 3 2 9 16 16
28 27 26 23 23 22 21 19 19 17 14 12 13 12 3 22 4 7 8 11 8 9 8 8 3 6 3 4 5 7 4 2 1 2 4 5 4 5 5 2 4 5 7 11 16
28 29 27 26 23 23 21 20 19 17 14 15 13 4 4 11 4 3 15 10 10 11 7 3 6 5 2 3 3 3 2 3 5 4 4 5 6 11 10 6 6 6 6 9 12
23 31 30 27 25 24 22 20 19 16 15 13 12 4 5 3 5 3 5 6 7 4 5 8 6 6 6 0 3 3 1 3 3 8 5 7 14 9 12 10 14 10 8 9 13
23 19 30 29 26 24 23 21 19 16 14 12 5 4 6 5 6 4 4 8 9 5 4 7 4 5 4 4 2 3 4 5 5 9 4 7 7 11 7 10 14 10 10 10 10
23 22 31 32 28 25 23 21 16 14 9 6 3 4 5 9 5 6 2 7 4 9 4 5 2 8 5 9 10 6 5 3 4 3 2 3 16 11 2 7 13 8 7 10 12
23 22 30 32 31 29 23 14 9 3 8 6 10 1 4 4 7 5 6 8 5 8 11 11 9 13 18 15 4 6 5 6 3 5 4 6 17 17 11 6 10 10 12 13 14
25 25 23 27 30 32 19 15 22 8 13 2 2 1 2 3 4 5 11 11 11 18 14 7 19 22 5 9 8 3 4 4 4 2 6 6 15 15 11 10 14 16 15 12 11
28 28 28 33 34 27 24 15 9 11 7 6 1 7 2 5 4 9 13 8 7 15 17 20 5 13 15 10 14 13 10 3 4 3 3 5 11 16 8 14 14 13 17 16 17
29 28 31 36 30 24 23 13 11 5 6 5 7 6 2 4 4 6 9 5 4 17 7 13 10 12 8 8 13 18 12 9 6 3 6 3 10 11 5 11 15 17 17 20 19
30 25 34 36 20 20 28 15 9 6 7 7 9 4 8 6 4 4 5 4 14 7 8 12 13 17 10 16 11 4 6 9 6 4 3 6 8 10 3 7 16 14 17 19 18
28 30 16 27 17 21 22 19 8 7 7 7 10 12 9 7 2 4 4 5 3 1 8 8 1 5 17 10 18 9 4 2 3 4 10 17 12 10 11 15 18 8 11 16 16
27 27 27 21 17 27 22 14 6 7 3 11 10 17 17 8 8 6 10 16 10 11 13 18 10 3 3 9 7 15 12 5 7 6 12 6 10 24 7 7 11 11 13 12 11
28 27 21 16 23 27 21 11 6 3 8 4 12 18 21 7 7 7 14 14 12 8 4 12 9 16 12 17 10 22 16 6 9 8 9 3 12 10 14 19 19 10 13 7 8
25 7 11 20 27 22 20 14 10 9 10 11 18 16 10 12 7 7 8 10 12 16 12 12 16 3 11 8 17 9 14 9 4 2 2 6 12 7 8 11 11 12 9 14 14
10 9 9 27 26 20 16 9 5 5 11 16 7 8 7 17 9 15 13 11 7 20 12 4 6 8 8 5 6 13 10 8 4 9 8 7 9 13 2 15 17 13 13 15 12
3 6 16 23 20 15 17 4 6 4 7 8 6 7 6 10 10 9 8 4 10 9 12 1 6 1 12 14 20 9 12 8 5 4 6 9 11 10 16 13 17 15 10 10 8
6 4 21 24 15 7 10 10 7 5 4 5 6 7 8 8 8 11 11 6 8 11 18 14 4 5 11 2 16 18 10 12 7 7 5 2 15 3 9 9 5 8 9 7 8
5 9 15 20 10 6 4 5 6 5 3 4 5 3 3 7 6 5 8 7 7 13 8 9 6 8 4 5 2 14 19 17 15 1 15 13 20 6 7 6 6 9 9 7 7
6 9 5 5 1 13 14 4 8 5 5 5 5 5 5 4 2 7 6 4 4 8 13 9 4 9 11 5 3 14 20 26 24 16 22 17 32 24 5 8 6 7 8 7 6
3 5 2 7 7 7 7 5 12 6 4 3 4 3 8 5 3 4 1 3 1 1 3 6 4 5 16 18 12 10 16 21 26 27 19 28 30 35 20 14 13 8 5 6 7
7 7 5 4 18 15 4 1 6 3 6 2 8 6 5 7 5 5 6 4 4 5 4 5 10 12 22 19 16 23 23 18 25 26 26 31 30 31 14 9 12 20 11 8 9
0 3 7 7 12 9 4 5 6 9 4 6 9 6 2 4 3 3 4 3 4 2 1 4 1 4 23 6 12 19 29 31 30 26 26 30 42 43 11 13 15 12 12 17 12
Wind_Direction
229 221 221 218 217 221 226 217 220 216 220 210 193 185 160 146 109 137 203 181 249 36 11 126 51 22 16 65 40 97 152 212 224 175 249 358 284 343 80 121 254 193 159 6 134
223 221 218 219 212 218 215 223 206 213 216 229 196 179 191 165 214 221 157 135 29 351 36 152 148 74 52 68 29 127 205 207 188 175 222 305 201 201 174 144 248 275 160 93 151
218 217 219 215 211 214 207 217 204 196 199 191 219 173 154 139 247 222 187 141 72 40 343 40 109 98 103 67 194 184 193 202 184 167 147 271 269 273 162 234 221 213 168 167 169
217 215 214 217 209 206 208 210 207 199 187 172 169 200 152 159 235 209 187 175 135 55 27 120 110 132 143 182 169 219 226 191 194 149 145 206 280 246 202 236 159 245 158 171 180
218 212 213 211 209 204 200 205 210 202 202 178 168 169 151 204 221 167 172 164 136 139 113 22 74 153 189 179 121 210 242 194 196 166 169 56 227 215 251 263 265 124 157 182 193
220 213 208 208 206 205 196 200 206 202 194 189 179 153 192 218 107 123 147 144 149 156 163 154 134 320 251 205 174 199 210 257 197 193 197 181 240 163 240 229 168 166 188 191 199
225 214 204 207 200 203 195 195 198 192 182 170 175 110 173 222 106 218 151 171 163 189 163 135 147 102 235 193 253 136 182 275 238 193 236 174 255 216 223 205 235 213 205 201 204
228 219 202 200 196 197 192 187 188 185 177 178 145 91 233 191 143 310 144 161 182 175 108 115 143 143 222 295 31 152 94 220 238 159 244 157 253 243 210 196 237 219 216 210 211
241 225 203 195 190 189 187 177 174 170 166 164 81 173 231 116 180 185 211 156 151 123 106 124 191 169 129 160 92 271 214 211 293 199 133 186 262 267 187 195 232 224 220 215 226
229 230 225 188 182 179 171 159 156 139 109 73 61 116 234 209 140 144 182 159 154 144 143 158 214 212 152 183 202 213 216 231 223 195 186 180 260 261 230 213 246 253 232 223 223
218 222 214 189 178 166 156 133 114 150 193 190 178 163 110 146 128 181 162 145 140 189 190 191 208 229 202 190 146 154 181 192 219 229 186 217 250 259 253 224 247 244 233 230 233
212 208 207 185 171 163 157 175 171 141 167 212 122 283 76 206 124 176 158 181 197 209 189 216 208 217 180 184 206 144 183 225 257 172 190 261 263 258 246 234 230 235 243 231 227
214 206 199 195 174 161 174 164 140 112 131 196 169 188 156 137 178 191 182 185 195 214 202 203 185 193 192 194 205 216 217 188 221 328 230 326 275 263 244 234 239 232 235 240 225
212 206 200 185 170 163 169 162 149 108 97 191 190 230 164 153 244 176 188 161 246 215 203 240 245 209 178 193 197 219 192 212 231 280 263 137 289 263 263 248 239 240 222 230 230
209 207 198 187 156 169 157 145 135 61 161 167 167 156 153 188 148 205 148 224 207 180 164 216 175 207 217 212 184 204 150 189 194 201 328 217 260 273 242 251 252 239 235 236 232
205 200 217 170 170 151 146 140 72 113 211 165 142 173 146 179 216 100 134 119 153 42 255 249 29 200 215 199 190 153 107 135 169 203 244 235 227 234 235 236 256 237 228 230 228
196 177 184 165 157 142 143 128 123 165 241 165 170 177 172 160 175 145 178 187 183 179 216 230 216 262 146 185 161 176 166 210 218 190 241 198 206 244 240 245 237 242 240 239 224
190 189 218 175 146 143 137 147 146 182 191 190 148 158 193 140 219 158 163 198 213 191 189 219 230 201 203 208 197 190 184 199 204 186 245 111 231 243 220 228 250 235 247 264 251
155 169 174 150 152 139 144 176 179 175 167 137 136 166 179 186 156 168 192 207 207 198 186 186 231 175 176 189 184 190 199 204 82 60 46 209 270 273 249 244 253 251 239 246 244
154 137 174 156 144 147 153 154 110 152 128 136 139 178 163 177 160 187 178 205 211 198 210 228 240 208 173 146 255 195 151 189 178 183 229 247 257 240 225 233 245 254 241 247 244
73 138 163 153 133 149 167 155 117 131 110 133 138 121 156 167 172 187 210 288 208 174 189 162 228 278 145 193 193 183 198 197 157 187 183 251 255 205 204 209 232 239 262 269 259
89 170 156 140 139 153 156 146 117 136 73 101 98 114 156 145 160 191 208 220 194 158 201 180 234 213 213 187 214 206 205 208 203 216 238 157 258 214 219 225 225 273 277 265 247
144 114 145 134 145 127 120 96 100 116 105 121 117 125 135 149 138 192 175 237 253 177 173 166 215 260 324 242 338 216 213 207 219 53 214 221 257 213 219 242 226 246 268 286 287
158 119 95 63 21 140 130 110 110 56 95 87 110 94 116 126 62 169 175 251 243 167 216 169 193 212 235 257 122 214 211 213 209 220 239 225 257 249 185 225 233 246 258 262 282
46 95 116 123 138 113 95 106 125 112 69 86 41 153 138 127 110 103 118 333 306 2 190 183 258 220 248 257 263 246 235 221 224 223 224 241 243 257 244 249 256 251 246 288 291
105 138 53 77 132 116 111 225 117 121 117 77 114 179 157 142 157 141 135 205 242 3 199 191 241 252 262 256 246 247 250 261 231 234 238 249 255 252 253 238 241 262 291 272 262
9 54 100 110 143 119 166 164 114 120 0 152 151 128 165 189 145 168 168 207 223 108 14 314 52 202 264 251 255 251 235 233 229 243 227 230 237 257 253 221 225 229 230 251 244